Port Colborne, Ontario

7:54 AM EST on February 25, 2018 (GMT -0500)
Port Colborne

Weather History for CWPC - October, 2013

Change the Weather History Date:

Sunday, October 13, 2013

  Actual Average Record
Temperature  
Mean Temperature 64 °F -  
Max Temperature 66 °F - - ()
Min Temperature 61 °F - - ()
Degree Days  
Heating Degree Days 2    
Growing Degree Days 14 (Base 50)    
Moisture  
Dew Point 54 °F    
Average Humidity 72    
Maximum Humidity 96    
Minimum Humidity 45    
Precipitation  
Precipitation 0.00 in - - ()
Sea Level Pressure  
Sea Level Pressure 30.23 in    
Wind  
Wind Speed 11 mph ()    
Max Wind Speed 18 mph    
Max Gust Speed -    
T = Trace of Precipitation, MM = Missing Value Source: Averaged Metar Reports

Daily Weather History Graph

Daily Weather History Graph

Search for Another Location

Airport or City:

Trip Planner

Search our weather history database for the weather conditions in past years. The results will help you decide how hot, cold, wet, or windy it might be!

Date:

Astronomy

Oct. 13, 2013 Rise Set
Actual Time 7:28 AM EDT 6:37 PM EDT
Civil Twilight 6:59 AM EDT 7:05 PM EDT
Nautical Twilight 6:26 AM EDT 7:38 PM EDT
Astronomical Twilight 5:54 AM EDT 8:11 PM EDT
Moon 3:34 PM EDT (10/13) 1:28 AM EDT (10/13)
Length of Visible Light 12h 05m
Length of Day
11h 09m
Waxing Gibbous, 69% of the Moon is Illuminated
Oct 13
Waxing Gibbous
Oct 18
Full
Oct 26
Last Quarter
Nov 3
New
Nov 10
First Quarter

Hourly Weather History & Observations

Time (EDT) Temp. Dew Point Humidity Pressure Visibility Wind Dir Wind Speed Gust Speed Precip Events Conditions
12:00 AM 66.9 °F 48.4 °F 51% 30.14 in - South 17.3 mph - N/A   Unknown
1:00 AM 66.7 °F 45.7 °F 47% 30.16 in - South 18.4 mph - N/A   Unknown
2:00 AM 66 °F 49 °F 45% 30.18 in - South 13.8 mph - -  
2:00 AM 65.7 °F 49.5 °F 56% 30.18 in - South 13.8 mph - N/A   Unknown
3:00 AM 65.1 °F 50.9 °F 60% 30.17 in - South 11.5 mph - N/A   Unknown
4:00 AM 64.2 °F 50.5 °F 61% 30.17 in - South 12.7 mph - N/A   Unknown
5:00 AM 64.4 °F 51.4 °F 63% 30.19 in - South 13.8 mph - N/A   Unknown
6:00 AM 64.4 °F 51.4 °F 63% 30.21 in - SW 8.1 mph - N/A   Unknown
7:00 AM 63.9 °F 51.3 °F 64% 30.22 in - WSW 12.7 mph - N/A   Unknown
8:00 AM 64 °F 50 °F 50% 30.24 in - WSW 12.7 mph - -  
8:00 AM 64.0 °F 50.0 °F 60% 30.24 in - WSW 12.7 mph - N/A   Unknown
9:00 AM 63.3 °F 53.6 °F 71% 30.25 in - SSW 13.8 mph - N/A   Unknown
10:00 AM 62.2 °F 54.1 °F 75% 30.26 in - SSW 18.4 mph - N/A   Unknown
11:00 AM 62.4 °F 52.7 °F 70% 30.26 in - SSW 16.1 mph - N/A   Unknown
12:00 PM 62.2 °F 54.5 °F 76% 30.27 in - SSW 10.4 mph - N/A   Unknown
1:00 PM 62.4 °F 55.0 °F 77% 30.26 in - SSW 5.8 mph - N/A   Unknown
2:00 PM 63 °F 56 °F 70% 30.25 in - SSW 5.8 mph - -  
2:00 PM 62.8 °F 55.6 °F 77% 30.25 in - SSW 5.8 mph - N/A   Unknown
3:00 PM 63.3 °F 55.8 °F 76% 30.24 in - SW 3.5 mph - N/A   Unknown
4:00 PM 63.3 °F 56.3 °F 78% 30.24 in - SSW 4.6 mph - N/A   Unknown
5:00 PM 63.1 °F 57.6 °F 82% 30.24 in - SW 3.5 mph - N/A   Unknown
6:00 PM 61.5 °F 59.5 °F 93% 30.25 in - West 11.5 mph - N/A   Unknown
7:00 PM 62.2 °F 61.0 °F 96% 30.26 in - WSW 10.4 mph - N/A   Unknown
8:00 PM 63 °F 61 °F 89% 30.27 in - WSW 10.4 mph - -  
8:00 PM 62.8 °F 60.6 °F 93% 30.27 in - WSW 10.4 mph - N/A   Unknown
9:00 PM 63.0 °F 60.6 °F 92% 30.27 in - WNW 3.5 mph - N/A   Unknown
10:00 PM 62.2 °F 59.9 °F 92% 30.28 in - WNW 4.6 mph - N/A   Unknown
11:00 PM 61.3 °F 57.4 °F 87% 30.28 in - NNW 5.8 mph - N/A   Unknown